"Pseudo-MPEC" for C07CEU2

Created 2019 Feb 14 4:18:08 UT using Find_Orb

Click here for an explanation of pseudo-MPECs

 
 Astrometry: 
     C07CEU2  C2019 02 12.30194 11 05 10.43 +03 42 51.2    ~2C8I       VNEOCPG96
     C07CEU2  C2019 02 12.30759 11 04 56.01 +03 48 18.8    ~2C8I 19.4 GVNEOCPG96
     C07CEU2  C2019 02 12.31890 11 04 27.41 +03 59 09.5    ~2C8I 19.3 GVNEOCPG96
     C07CEU2 KC2019 02 12.35072611 03 07.47 +04 28 43.7    ~2C93 18.8 GVNEOCPV03
     C07CEU2 KC2019 02 12.35225711 03 03.66 +04 30 10.6    ~2C93 18.8 GVNEOCPV03
     C07CEU2 KC2019 02 12.35374211 02 59.93 +04 31 34.3    ~2C93 18.8 GVNEOCPV03
     C07CEU2  C2019 02 12.45954 10 58 40.82 +06 09 13.8    ~2CBX 19.3 GVNEOCPI52
     C07CEU2  C2019 02 12.46003 10 58 39.68 +06 09 40.4    ~2CBX 19.0 GVNEOCPI52
     C07CEU2  C2019 02 12.46054 10 58 38.44 +06 10 07.5    ~2CBX 19.2 GVNEOCPI52
     C07CEU2  C2019 02 12.46105 10 58 37.22 +06 10 35.0    ~2CBX 19.0 GVNEOCPI52
     C07CEU2  C2019 02 12.52313 10 56 12.97 +07 05 11.5    ~2CD3 19.4 GVNEOCPI52
     C07CEU2  C2019 02 12.52362 10 56 11.84 +07 05 36.8    ~2CD3 19.1 GVNEOCPI52
     C07CEU2  C2019 02 12.52411 10 56 10.76 +07 06 02.7    ~2CD3 18.9 GVNEOCPI52
     C07CEU2  C2019 02 12.52459 10 56 09.64 +07 06 27.6    ~2CD3 19.2 GVNEOCPI52
     C07CEU2 pC2019 02 12mwfEOeAstrometry6@.Gme`V2wr+,S9/BV9=pnodF5\LZ1kqQyrEL01
     C07CEU2 KC2019 02 12[t%#*s@!AiegXGm92^dd7\cUn_#l@?LnyOyroTm8?[q@Nd,g(J$3L01
     C07CEU2 KC2019 02 12n/$bTo4#I'pBbA7+IXgsredacted;6+a$qmR`EI#eW2y5['_XCt4L01
     C07CEU2 KC2019 02 127X-bK_J_LMV7_BkNWL35o90*$SPVJ3G(A/-Z1Wt7_*OxLtL)F9?;L01
     C07CEU2 KC2019 02 12@-=g5^PCsaTGyclickmQ(kWq`0Y=bqE!RAAWq*3MQ2@\nf9p]SrnL01
     C07CEU2 KC2019 02 12t;E4gk8@uKG7h+T/Uk'_)q$Y1I-'H4;i6`\05-X;EW*.@`y\g9f8587
     C07CEU2 KC2019 02 12B@f0`Huu/-jT-!9;Ayn#f-CYXB]ROhuIh;4(c/#rG'#H@rCsfF9N587
     C07CEU2 KC2019 02 12;w4??OSGlb$XKy[MsSpl?q`G;XThere'hmwe[+0oRV11ti\tJdm#587
     C07CEU2 KC2019 02 12FXR(FE%fZAqDj#!4NjKHn5pqIdGUdk!vw)wvbcV]4M7(L)LQ+@f!C95
     C07CEU2 KC2019 02 12^6]#2F@i]TC1kxmq'tH2:hh`X-SVfor7kV=':t:::]Qn_X01_*YLC95
     C07CEU2 KC2019 02 13k6^]GUd;OX/C;`7v#QT3bnqu@oQ4.1[yt\I)!3YMVO3H%6y3#;'t204
     C07CEU2 KC2019 02 13-K+/EB2NCPaV#r+k@0'?x_4%YX[Wp/bA;K@]^oZh06F(B7H,rA^W204
     C07CEU2 KC2019 02 13voX^kM01dHD6explanationk4\M0sPqlKUI5?nW=ShO8YHj@pK`p204
     C07CEU2 KC2019 02 14.00230810 15 22.40 +22 28 48.9    ~2E13 20.1 GVNEOCPJ95
     C07CEU2 KC2019 02 14.01242910 15 08.45 +22 33 11.8    ~2E13 20.0 GVNEOCPJ95
     C07CEU2 KC2019 02 14.02336110 14 53.49 +22 37 52.4    ~2E13 20.0 GVNEOCPJ95

Station data:
(204) Schiaparelli Observatory  (N45.867933 E8.770800)  Italy.  Observer L.
   Buzzi. 0.60-m f/4.64 Newtonian + CCD.
(587) Sormano  (N45.882949 E9.229180)  Italy.  Observers F. Manca, A. Testa.
   Measurer F. Manca. 0.5-m + CCD.
(C95) SATINO Remote Observatory, Haute Provence  (N43.932042 E5.712390)
   France.
(G96) Mt. Lemmon Survey  (N32.442754 W110.788720)  US/Arizona.  Observers B.
   M. Africano, E. J. Christensen, G. A. Farneth, D. C. Fuls, A. R. Gibbs, A.
   D. Grauer, H. Groeller, J. A. Johnson, R. A. Kowalski, S. M. Larson, G. J.
   Leonard, R. L. Seaman, F. C. Shelly. 1.5-m reflector + 10K CCD.
(I52) Steward Observatory, Mt. Lemmon Station  (N32.442547 W110.788920)
   US/Arizona.  Observers B. M. Africano, E. J. Christensen, G. A. Farneth,
   D. C. Fuls, A. R. Gibbs, A. D. Grauer, H. Groeller, J. A. Johnson, R. A.
   Kowalski, S. M. Larson, G. J. Leonard, R. L. Seaman, F. C. Shelly. 1.0-m
   reflector + CCD.
(J95) Great Shefford  (N51.474969 W1.447003)  UK.  Observer P. Birtwhistle.
   0.40-m f/6.0 Schmidt-Cassegrain + CCD.
(L01) Višnjan Observatory, Tičan  (N45.290900 E13.749300)  Croatia.
   Observers K. Korlević, E. Pettarin. Measurer E. Pettarin. 1.0-m f/2.9
   reflector + CCD.
(V03) Big Water  (N37.083379 W111.668600)  US/Utah.  Observer D. Rankin.
   0.30-m reflector + CCD.

Orbital elements:  C07CEU2
   Perihelion 2018 Nov 25.757980 +/- 0.0212 TT = 18:11:29 (JD 2458448.257980)
Epoch 2019 Feb 14.0 TT = JDT 2458528.5   Earth MOID: 0.0082   Ve: 0.0935
M  95.71693866 +/- 0.025            (J2000 ecliptic)          AutoNEOCP
n   1.19285305 +/- 1.88e-5          Peri.  228.97804 +/- 0.0016
a   0.88053120 +/- 9.23e-6          Node   143.54861 +/- 0.00023
e   0.3591919 +/- 0.000213          Incl.   11.78847 +/- 0.009
P   0.83/301.79d           H 27.6   G  0.15   U  5.5  
q 0.56425145 +/- 0.000185    Q 1.19681095 +/- 0.000192
From 30 observations 2019 Feb. 12-14 (41.3 hr); mean residual 0".44
Residuals in arcseconds: 
190212 G96  1.2+  1.8-    190212 I52  .04-  .13-    190212 587  .29-  .39-    
190212 G96  .30-  .03-    190212 I52  .31-  .29-    190212 587  .30-  .07-    
190212 G96  .08-  .78+    190212 I52  .15+  .15+    190212 C95  .62+  .05-    
190212 V03  .23-  .02+    190212 I52  .33-  .12+    190212 C95  .61-  1.1+    
190212 V03  .09-  .44+    190212 L01  .24-  .40+    190213 204  .28+  .23-    
190212 V03  .49-  .31+    190212 L01  .42+  .15+    190213 204  .23+  .48-    
190212 I52  .10+  .12+    190212 L01  .08-  .00     190213 204  .34-  .19-    
190212 I52  .47+  .43+    190212 L01  .28+  .34-    190214 J95  .35-  .44-    
190212 I52  .06+  .18+    190212 L01  .08+  .02-    190214 J95  .29-  .52+    
190212 I52  .07-  .34+    190212 587  .09-  .45-    190214 J95  .66+  .05-    

Ephemerides (geocentric):
Date (UTC) HH   RA              Dec         delta   r     elong  mag " sig PA
---- -- -- --  -------------   -----------  ------ ------ -----  --- ---- ---
2019 02 14 04  10 11 54.801   +23 39 44.97  .02542 1.0123 168.2 20.3 .114 170
2019 02 14 05  10 11 04.674   +23 56 11.92  .02565 1.0125 168.1 20.3 .111 171
2019 02 14 06  10 10 15.221   +24 12 20.46  .02587 1.0128 167.9 20.4 .109 171
2019 02 14 07  10 09 26.428   +24 28 11.02  .02610 1.0130 167.7 20.4 .106 171
2019 02 14 08  10 08 38.285   +24 43 44.02  .02633 1.0132 167.6 20.4 .104 171
2019 02 14 09  10 07 50.779   +24 58 59.86  .02656 1.0134 167.4 20.4 .102 172
2019 02 14 10  10 07 03.899   +25 13 58.93  .02679 1.0136 167.2 20.5 .099 172
2019 02 14 11  10 06 17.635   +25 28 41.63  .02703 1.0138 167.1 20.5 .097 172
2019 02 14 12  10 05 31.975   +25 43 08.33  .02726 1.0140 166.9 20.5 .095 173
2019 02 14 13  10 04 46.909   +25 57 19.39  .02749 1.0143 166.7 20.5 .092 173
2019 02 14 14  10 04 02.426   +26 11 15.17  .02773 1.0145 166.5 20.6 .090 173
2019 02 14 15  10 03 18.516   +26 24 56.03  .02796 1.0147 166.3 20.6 .088 174
2019 02 14 16  10 02 35.170   +26 38 22.29  .02820 1.0149 166.1 20.6 .086 174
2019 02 14 17  10 01 52.377   +26 51 34.31  .02843 1.0151 165.9 20.6 .083 175
2019 02 14 18  10 01 10.128   +27 04 32.39  .02867 1.0153 165.7 20.7 .081 175
2019 02 14 19  10 00 28.413   +27 17 16.86  .02891 1.0156 165.6 20.7 .079 176
2019 02 14 20  09 59 47.224   +27 29 48.01  .02915 1.0158 165.4 20.7 .077 176
2019 02 14 21  09 59 06.552   +27 42 06.16  .02938 1.0160 165.2 20.7 .075 177
2019 02 14 22  09 58 26.387   +27 54 11.59  .02962 1.0162 165.0 20.8 .073 178
2019 02 14 23  09 57 46.720   +28 06 04.58  .02986 1.0164 164.8 20.8 .071 178
2019 02 15 00  09 57 07.545   +28 17 45.42  .03010 1.0166 164.6 20.8 .069 179
2019 02 15 01  09 56 28.852   +28 29 14.38  .03034 1.0168 164.4 20.8 .067   0
2019 02 15 02  09 55 50.633   +28 40 31.71  .03059 1.0171 164.2 20.9 .065   1
2019 02 15 03  09 55 12.880   +28 51 37.67  .03083 1.0173 164.0 20.9 .063   2
2019 02 15 04  09 54 35.586   +29 02 32.52  .03107 1.0175 163.8 20.9 .062   3
2019 02 15 05  09 53 58.743   +29 13 16.49  .03131 1.0177 163.6 20.9 .060   4
2019 02 15 06  09 53 22.343   +29 23 49.83  .03156 1.0179 163.5 21.0 .058   5
2019 02 15 07  09 52 46.380   +29 34 12.77  .03180 1.0181 163.3 21.0 .056   6
2019 02 15 08  09 52 10.845   +29 44 25.53  .03205 1.0183 163.1 21.0 .055   7
2019 02 15 09  09 51 35.733   +29 54 28.32  .03229 1.0186 162.9 21.0 .053   8
2019 02 15 10  09 51 01.036   +30 04 21.38  .03254 1.0188 162.7 21.0 .052  10
2019 02 15 11  09 50 26.747   +30 14 04.89  .03278 1.0190 162.5 21.1 .050  11
2019 02 15 12  09 49 52.860   +30 23 39.07  .03303 1.0192 162.3 21.1 .049  13
2019 02 15 13  09 49 19.369   +30 33 04.12  .03328 1.0194 162.2 21.1 .047  14
2019 02 15 14  09 48 46.266   +30 42 20.23  .03352 1.0196 162.0 21.1 .046  16
2019 02 15 15  09 48 13.547   +30 51 27.58  .03377 1.0198 161.8 21.2 .045  18
2019 02 15 16  09 47 41.204   +31 00 26.36  .03402 1.0200 161.6 21.2 .044  20
2019 02 15 17  09 47 09.232   +31 09 16.75  .03427 1.0203 161.5 21.2 .043  22
2019 02 15 18  09 46 37.625   +31 17 58.93  .03452 1.0205 161.3 21.2 .041  24
2019 02 15 19  09 46 06.378   +31 26 33.05  .03476 1.0207 161.1 21.2 .041  26
2019 02 15 20  09 45 35.483   +31 34 59.30  .03501 1.0209 160.9 21.3 .040  28
2019 02 15 21  09 45 04.938   +31 43 17.83  .03526 1.0211 160.8 21.3 .039  30
2019 02 15 22  09 44 34.734   +31 51 28.79  .03551 1.0213 160.6 21.3 .038  33
2019 02 15 23  09 44 04.869   +31 59 32.35  .03576 1.0215 160.4 21.3 .037  35
2019 02 16 00  09 43 35.335   +32 07 28.65  .03602 1.0217 160.3 21.4 .037  38
2019 02 16 01  09 43 06.129   +32 15 17.84  .03627 1.0220 160.1 21.4 .036  40
2019 02 16 02  09 42 37.245   +32 23 00.05  .03652 1.0222 159.9 21.4 .036  43
2019 02 16 03  09 42 08.678   +32 30 35.44  .03677 1.0224 159.8 21.4 .036  46